COSMOS 734

Satellite information

Favourite Embed

Satellite Type and Status

PAYLOADIN ORBIT

Key statistics

Satellite COSMOS 734 at a glance.

Uptime

18246

Days in orbit

Revolutions

≈ 12.5

Per day

Orbit

LEO

Low Earth Orbit

Inclination

74.0

Latest

Satellite identification and parameters

Extended collection of information and parameters for COSMOS 734.

Object identification

Identified? True

Debris? False

Object name: COSMOS 734

International designator: 1975-045C

Object number (NORAD): 7823

Object ID (CCSDS): 7823

Country: COMMONWEALTH OF INDEPENDENT STATES (CIS)

Current information (Y/N): Y

RCS size: MEDIUM

Orbital parameters

Period: 115.035 minutes

Inclination: 74.0204 deg

SMA: 7835.151 km

Apoapsis: 1471.029 km

Periapsis: 1443.002 km

RAAN: 41.5146 deg

Eccentricy: 0.0017885

Argument of periapsis: 348.137 deg

Mean anomaly: 69.0484 deg

Mean motion: 12.51790745 rev/day

Mean motion (dot): -0.00000018 rev/day2

B* drag term: -0.000015182 1/REarth

Two-line elements (TLE)

Creation date: May 10, 2025, 2:32 a.m.

Reference frame: TEME

Reference center: EARTH

Epoch: May 9, 2025, 7:32 p.m. UTC

TLE line 0: 0 COSMOS 734

TLE line 1: 1 07823U 75045C 25129.81398332 -.00000018 00000-0 -15182-4 0 9999

TLE line 2: 2 07823 74.0204 41.5146 0017885 348.1370 69.0484 12.51790745282593

Live tracking on map

Real-time ground track for satellite COSMOS 734.

In-orbit conjunctions

A list of the most updated potential collisions computed for object COSMOS 734.

Target Orbit TCA Probability of collision Miss distance Type
COSMOS 1723 LEO 2024-06-22 08:44:40 0.0001330661 165.0 (m) PAYLOAD

Associated space launch

Military communications satellites

COSMOS 734 was lifted into orbit during the mission ‘Kosmos-3M | Strela-1M 89-96’, on board a Kosmos-3M space rocket.

The launch took place on May 28, 1975, 12:25 a.m. from 132/1 (132L).

For more information about the launch, click the button.

Launch to space Kosmos-3M | Strela-1M 89-96
Kosmos-3M | Strela-1M 89-96

Agency: N/A

Status: Launch Successful

Launch date: May 28, 1975, 12:25 a.m. UTC

Rocket: Kosmos-3M

Launch pad: 132/1 (132L)

Location: Plesetsk Cosmodrome, Russian Federation

...

Latest news about this satellite

There are no fresh news available about this satellite. Check back as we update our databases every day.


Newsletter sign-up

Weekly statistics, charts and insights to help you stay on top of the space industry.